CZ-6A DEB, 54349

Orbit data source: Space-Track

CZ-6A DEB, 54349 is space debris in SSO originally from a launch on Fri, 11 Nov 2022 UTC launched from the Taiyaun Space Center, China (TSC). Debris objects in space refer to the collection of defunct objects orbiting the Earth. Examples of debris include non-operational satellites, rocket bodies, and fragments generated from explosions, collisions, or faulty payload assembly.

Loading next visibility...
Identifier
54349, 2022-151CU
Orbit
SSO
Country
Flag of CNCN / PRC
Related business
Manufacturer
SAST
Mission
Spacecraft
Bus & Motor
Unknown
Mass
Unknown
Launch date (UTC)
2022-11-11 (4 years ago)
Launch vehicle
Unknown
Launch site
Taiyaun Space Center, China (TSC)
Object type
Payload
Rocket body
Debris
Shape & HBR
Unknown shape, 0.1 m
Radar Cross Section
Medium (>0.1 m² and <1 m²)

Expand to show TLE details & history
Last TLE update: 11 hours ago

TLE from 11 hours ago
0 CZ-6A DEB
1 54349U 22151CU  26219.99498631  .00000283  00000-0  12278-3 0  9991
2 54349  98.6737 238.2871 0107178 309.2592  49.9117 14.28646865194119
Epoch: 2026-08-07T23:52Z
TLE epoch observation values (Epoch: 2026-08-07T23:52:46.817Z)
Latitude
0.00001°
Longitude
-76.42066°
Altitude
750.146 km
Speed
7.505 km/s
True Right ascension
15h 53m 08s
True Declination
0° 00' 00"
Sunlit
Object was in daylight at epoch
Visualization orbit readout
Latitude
Unknown
Longitude
Unknown
Altitude
Unknown
Speed
Unknown
Apparent Right ascension
Unknown
Apparent Declination
Unknown
Sunlit
N/A
Visualization observer readout
Local Sidereal Time
00:53:46
Azimuth
Unknown
Elevation
Unknown
Doppler factor
Unknown
Orbital elements
Apogee altitude
870.265 km
Perigee altitude
716.539 km
Semi-major axis
7,171.539 km
Eccentricity
0.01072
Inclination
98.6737°
RAAN
238.2871°
Arg. of periapsis
309.2592°
True anomaly
50.85945°
Mean anomaly
49.9117°
Eccentric anomaly
50.38476°
Mean motion
3.57375 °/min
Orbital period
100.73 mins
BSTAR
0.00012278
Loading maneuver chart data...
Computing Atmospheric mass density...
Loading historical data...
Loading historical data...
Loading historical data...
Loading historical data...
Loading historical data...
Loading historical data...
Loading historical data...

Documentation

Showing up to 5 results
|